Location: Gwatt
(46.7204°N, 7.6223°E)
Time: 11:31:10
(UTC+00:00)

USA 234 - Pass Details

Date: 18 September 2020
Orbit: 1102 x 1106 km, 123.0° (Epoch: 16 October)

Event Time Altitude Azimuth Distance (km) Brightness Sun altitude
Rises 18:34:04 0° 57° (ENE) 3,927 5.8 -10.9°
Reaches altitude 10° 18:36:53 10° 67° (ENE) 2,966 5.1 -11.4°
Maximum altitude 18:42:38 32° 128° (SE) 1,792 3.9 -12.3°
Drops below altitude 10° 18:48:21 10° 190° (S) 2,955 5.5 -13.3°
Sets 18:51:08 0° 200° (SSW) 3,910 6.2 -13.7°
